Dewpoint
18 16 15 15 15 19 32 29 29 24 20 19 17 12 9 7 5 4 7 8 10 11 11 6 7 6 6 11 15 17 19 19 20 24 30 42 39 41 40 42 46 48 47 48 54 55 56 61 60 61 62 63 64 64 64 63 63 63 62 63 63 64 64 63 61 60 59 59 59 61 58 56 60 57 61 59 60 58 59 58 55 58 59 59 60 60
22 17 18 19 23 30 30 31 31 27 26 20 17 12 6 7 9 7 7 12 13 24 12 13 9 9 12 14 15 16 19 15 21 22 30 25 40 37 39 41 46 48 47 48 54 52 53 55 62 62 62 63 62 63 64 64 63 63 63 62 63 64 63 63 63 63 62 61 57 61 56 56 54 50 56 57 58 57 59 61 61 61 60 61 62 62
22 15 18 21 27 28 27 30 26 26 23 20 16 12 7 5 4 15 18 18 13 20 16 10 9 10 12 12 14 18 21 24 25 27 27 28 26 28 37 39 46 48 48 48 50 51 49 56 59 62 63 63 64 64 63 65 64 63 63 63 63 63 62 63 63 62 62 65 61 63 61 60 55 56 58 55 57 58 54 63 59 62 63 62 57 61
19 14 19 14 28 25 24 23 24 24 25 17 17 12 6 5 4 10 22 17 18 20 16 13 11 19 22 17 20 22 20 25 28 24 29 30 27 29 28 39 45 47 49 48 49 48 48 52 59 60 60 63 63 64 63 64 63 63 63 63 63 62 62 62 62 62 62 62 61 60 61 60 59 57 58 59 59 59 60 56 57 59 64 62 59 56
10 18 22 25 24 22 21 20 22 19 15 20 19 12 11 9 6 4 19 24 29 27 28 19 20 17 18 15 17 21 20 24 21 20 22 24 20 33 40 44 49 49 50 49 50 50 49 49 53 56 60 62 63 64 63 64 63 62 63 63 63 61 61 62 62 62 61 60 61 61 60 58 58 59 58 57 57 59 55 57 60 61 62 58 58 58
6 25 27 20 18 19 20 15 20 24 21 16 21 19 16 16 16 14 19 22 24 20 25 22 15 15 16 16 15 15 18 19 21 20 18 21 26 24 27 49 50 49 50 51 51 51 52 51 53 56 60 61 61 62 64 64 63 62 63 62 62 60 61 61 62 61 60 60 60 60 58 57 57 57 58 57 57 58 59 52 61 59 57 57 59 55
13 27 26 22 19 19 18 16 18 22 21 17 16 20 17 15 20 19 18 21 18 18 23 28 17 15 13 11 14 16 15 17 24 24 22 22 22 23 26 32 50 51 52 48 51 52 52 54 55 58 59 60 60 61 63 64 64 62 63 62 60 59 60 60 61 60 60 60 59 59 57 57 56 56 58 59 60 58 57 60 58 58 61 57 58 59
9 14 19 21 21 19 18 16 20 17 18 13 27 18 15 18 20 20 18 18 21 21 24 21 18 16 15 16 17 15 16 16 22 24 25 21 23 25 28 29 36 48 50 50 50 53 55 55 55 55 56 59 60 61 61 63 63 62 62 62 60 59 60 60 61 59 59 58 58 58 58 56 57 57 56 58 59 59 58 59 58 58 61 59 58 60
26 23 23 20 21 17 13 13 22 20 16 17 24 19 18 17 22 19 15 15 17 18 14 16 17 16 14 17 16 16 17 20 22 27 22 18 18 21 25 24 27 32 41 46 47 51 52 53 54 54 55 58 59 61 60 61 62 62 63 62 60 59 60 60 61 58 58 59 57 58 59 57 57 56 56 56 56 57 58 59 60 60 56 58 59 55
16 16 16 20 15 14 13 11 10 19 16 22 16 17 20 21 20 21 19 17 21 20 17 17 21 15 16 20 16 13 14 20 22 25 21 21 20 19 21 25 36 29 38 38 40 44 51 54 54 56 58 59 59 62 61 61 61 62 62 62 60 59 60 60 60 58 58 59 57 58 59 57 57 56 55 55 56 57 59 59 60 58 59 57 58 58
17 24 21 14 14 13 14 14 13 13 18 20 22 20 19 17 18 19 20 20 21 18 17 21 22 18 13 17 22 25 21 18 21 21 22 23 23 20 28 25 28 27 30 29 34 40 48 52 54 58 58 59 59 60 61 61 60 61 61 61 59 59 60 60 59 58 58 59 57 57 59 58 57 56 56 55 56 56 58 56 57 59 59 57 56 57
8 14 14 12 12 9 9 9 12 15 15 15 17 16 15 15 18 18 21 23 19 17 18 16 20 21 14 14 19 22 22 22 24 32 25 25 23 25 32 27 26 26 27 27 28 36 49 53 54 56 58 59 59 61 60 62 61 60 60 61 59 59 60 60 59 58 58 58 57 58 59 58 57 55 55 55 55 55 56 56 56 59 57 56 56 58
16 14 11 10 15 7 6 5 5 7 12 11 12 12 15 14 18 17 18 17 17 17 19 16 17 15 15 18 19 18 16 19 26 21 26 26 28 31 27 28 27 28 27 27 36 46 51 52 58 56 53 57 58 59 60 62 62 61 60 61 58 58 60 59 58 58 58 58 57 57 58 59 58 56 56 55 56 56 57 55 56 57 56 56 55 57
16 15 14 12 9 12 7 6 5 2 7 9 9 15 15 15 17 18 17 23 25 21 26 32 21 20 16 17 18 17 19 19 23 26 26 26 32 33 26 29 25 32 30 34 39 44 48 52 52 54 55 56 60 59 59 61 62 60 60 61 58 57 60 59 58 57 57 58 57 58 57 58 58 58 57 56 55 57 57 57 57 57 56 55 56 55
15 17 14 14 14 10 8 4 5 10 9 8 11 10 18 16 16 16 13 14 14 14 18 16 19 17 17 20 23 22 21 21 21 20 26 31 31 34 25 21 30 34 39 43 47 49 50 53 55 58 59 61 59 60 59 60 61 61 60 60 59 57 60 59 57 57 57 57 58 58 58 58 57 58 58 58 57 57 57 57 57 57 58 57 55 55
9 14 13 10 10 9 7 7 7 5 7 7 9 9 13 17 20 14 17 16 16 15 17 19 17 18 24 31 26 25 22 21 21 22 26 25 24 27 28 30 33 39 41 44 47 50 52 53 55 56 58 58 59 59 61 60 61 61 60 60 59 57 59 59 57 57 57 57 58 58 59 57 58 56 57 57 57 58 59 59 58 58 59 58 57 56
6 9 7 6 8 9 9 9 3 6 11 18 9 11 9 15 14 18 19 21 22 16 14 17 21 19 28 21 20 22 20 18 18 20 20 23 26 33 33 34 35 40 45 47 49 50 51 51 53 53 55 56 57 58 60 60 60 60 60 61 61 59 58 59 57 57 57 57 58 58 59 58 58 57 57 56 58 58 58 61 60 58 59 60 58 57
13 11 7 8 9 9 9 5 5 6 5 4 7 6 9 10 18 19 14 17 15 12 16 17 19 11 10 18 25 19 19 17 17 18 20 30 32 34 38 40 41 43 46 47 49 50 50 50 50 51 53 53 56 57 58 57 61 60 62 59 59 59 56 57 57 56 57 57 58 57 58 59 59 58 58 57 59 60 57 60 61 61 58 59 60 57
14 12 10 7 5 5 4 7 9 9 5 2 3 1 6 11 12 14 15 12 12 13 11 16 9 10 7 14 12 18 18 22 18 19 25 26 30 35 38 40 42 44 46 46 47 48 49 50 50 52 53 50 53 57 58 57 59 62 61 59 58 60 59 58 58 56 56 57 58 58 58 59 59 60 61 60 61 59 58 58 59 60 60 58 59 58
19 13 12 10 7 2 4 8 11 11 6 3 2 1 1 8 15 12 16 12 14 12 16 18 14 10 15 29 24 30 22 29 25 19 24 26 31 36 38 40 40 43 46 46 46 47 49 50 50 50 52 51 53 55 57 58 59 58 60 59 58 59 58 57 60 59 57 56 57 58 59 59 57 58 59 61 62 60 58 59 60 60 60 59 56 57
16 25 16 15 9 5 5 10 10 10 11 13 3 7 10 19 14 6 18 9 12 13 11 12 10 20 33 28 25 27 25 30 36 32 32 29 32 35 38 40 41 42 44 45 47 48 48 48 49 49 51 50 51 53 54 55 57 58 59 60 56 57 57 58 59 59 60 59 59 59 60 60 60 61 61 59 60 61 60 58 59 60 60 59 58 56
16 22 15 13 9 8 7 7 7 9 10 13 12 16 24 31 27 17 11 14 21 18 19 11 10 21 27 27 29 24 26 29 29 23 31 30 33 37 39 41 41 41 42 44 45 47 47 48 49 49 49 49 48 48 50 53 54 54 55 54 57 55 55 58 57 59 58 58 59 61 61 61 60 61 60 61 61 59 58 58 59 59 59 59 59 58
27 25 21 16 11 8 6 5 6 5 9 11 13 13 12 16 16 14 13 15 21 16 21 19 18 20 30 28 24 28 27 26 29 26 28 32 36 37 38 37 39 41 39 42 43 43 43 45 46 45 47 47 49 50 50 52 52 52 53 53 54 54 56 56 55 56 58 59 60 60 59 60 59 60 60 59 58 58 57 58 58 57 59 60 58 56
24 21 14 11 11 9 6 2 1 -0 7 9 10 11 10 14 14 14 11 15 12 15 11 15 17 22 33 29 30 31 27 34 30 29 29 33 36 37 37 38 38 39 41 40 41 43 43 43 45 44 45 46 47 49 49 49 49 51 52 53 52 53 54 54 55 56 56 58 58 60 60 59 60 60 60 59 60 60 58 56 56 56 58 57 58 55
20 20 14 9 8 6 5 0 -6 -7 -2 9 11 15 12 10 10 16 14 17 14 12 12 14 13 15 30 32 24 23 23 22 23 25 32 32 36 36 35 36 37 38 39 37 38 39 39 38 38 38 39 40 42 43 47 46 46 46 48 49 49 50 52 54 55 55 54 55 56 57 57 58 59 59 60 60 59 60 61 60 60 59 58 58 57 56
21 23 19 13 11 10 10 7 4 15 8 10 13 16 16 10 17 14 11 16 16 18 16 15 14 25 27 27 23 22 22 22 23 24 26 32 34 33 34 37 38 37 38 36 38 40 41 36 33 35 38 35 37 37 39 42 41 41 42 46 49 45 49 48 49 51 55 55 56 58 59 60 60 59 58 59 58 58 58 58 59 58 61 61 57 55
22 23 20 18 14 11 9 6 12 11 16 10 12 13 12 13 14 19 16 15 14 18 16 18 17 22 24 17 20 23 27 23 25 29 31 27 32 39 37 36 37 38 37 36 39 38 39 40 40 36 37 35 36 36 36 36 36 37 42 43 42 41 45 49 50 47 49 50 54 56 56 58 60 60 59 59 58 58 59 60 60 58 57 58 57 58
19 20 18 20 16 11 9 8 10 10 9 8 9 12 10 13 17 19 18 16 19 15 13 19 22 23 21 20 20 22 23 24 27 31 31 39 34 33 34 34 38 34 37 38 38 38 38 38 39 41 41 38 32 30 31 31 32 34 38 36 37 39 46 46 49 46 46 52 52 54 52 56 59 59 59 59 59 59 59 59 58 57 58 59 59 59
19 15 17 18 14 10 9 8 9 9 10 10 10 13 15 14 18 22 25 19 22 17 12 20 22 23 18 17 21 22 23 23 24 35 33 35 30 28 31 32 30 32 34 34 38 39 39 38 40 41 40 37 37 36 36 32 34 39 38 37 36 38 41 44 49 47 46 47 49 49 51 52 54 55 57 58 58 58 58 57 57 57 57 58 58 58
23 20 20 16 16 15 13 12 11 10 12 11 13 12 13 17 18 18 18 18 19 21 22 21 24 25 21 19 21 23 27 26 23 25 30 26 30 27 28 31 30 29 28 30 34 36 38 38 39 39 41 42 34 33 32 34 34 34 36 37 36 38 40 44 50 47 45 45 46 50 50 49 50 51 52 53 53 55 59 58 58 58 57 57 57 57
23 19 24 23 21 20 17 14 12 11 13 14 12 11 13 15 14 17 19 21 24 22 22 24 24 24 20 23 21 22 27 24 25 23 22 24 23 26 25 27 29 31 28 28 33 34 36 38 38 36 36 38 37 36 37 39 33 33 35 41 37 34 34 33 44 47 50 44 47 49 49 49 50 51 50 50 51 52 50 49 55 58 58 58 57 57
26 22 23 23 21 21 18 15 13 13 14 15 16 19 21 22 22 22 22 23 23 24 24 26 23 23 19 22 22 23 21 21 20 20 22 22 20 24 24 25 28 30 30 29 31 33 34 34 36 36 37 38 36 36 35 37 35 36 37 36 32 36 36 44 49 45 47 46 47 45 46 47 47 47 48 49 48 48 49 51 49 50 53 57 57 57
22 22 20 20 18 18 16 16 14 17 18 17 21 22 21 21 18 19 19 23 24 26 24 21 19 19 20 22 21 21 25 24 20 18 23 25 28 24 22 25 27 28 29 31 30 31 31 31 33 38 36 34 32 30 31 30 34 38 36 40 46 35 43 38 43 37 46 45 38 39 48 46 44 46 48 48 48 50 50 47 49 50 49 49 56 54
22 22 19 20 17 18 18 20 21 18 15 15 22 23 23 22 22 24 24 23 25 25 19 19 19 21 21 25 25 24 26 27 28 28 26 26 28 28 27 29 26 28 31 31 30 30 33 35 34 36 38 38 35 34 33 37 34 38 47 39 33 39 35 32 35 41 42 45 45 46 47 43 42 43 46 48 48 49 48 48 48 51 52 51 50 52
21 21 16 17 17 18 20 21 16 15 15 21 21 20 23 25 20 19 23 23 22 21 22 20 19 21 22 23 23 24 26 25 25 24 24 23 28 28 28 28 31 38 37 33 37 35 38 40 38 39 37 36 35 40 41 34 36 42 34 40 36 36 39 34 31 40 45 47 45 46 45 40 43 47 47 45 44 47 44 46 49 48 49 50 51 51
20 17 18 19 18 19 18 16 13 13 18 20 19 22 22 22 21 22 21 19 20 24 26 25 19 19 22 21 20 22 21 23 24 24 24 26 30 30 29 30 27 34 33 33 37 39 39 35 39 38 38 39 34 30 28 33 36 34 36 35 36 40 37 35 36 34 45 44 46 38 38 40 46 49 48 48 48 47 46 48 50 50 51 50 50 49
20 20 19 19 23 16 17 15 15 18 18 19 21 30 28 26 25 24 20 24 26 23 21 22 22 22 23 22 22 23 26 25 25 26 26 25 27 28 29 28 30 39 33 34 33 34 39 36 34 40 41 36 33 31 32 32 33 38 36 33 32 32 33 40 35 32 41 40 37 38 38 38 40 46 47 46 44 44 47 47 47 49 50 49 49 49
18 21 21 18 19 17 14 13 13 13 12 18 28 29 28 29 30 28 24 21 22 20 24 24 24 25 25 22 23 24 27 23 23 27 27 25 24 26 26 28 29 30 31 31 32 35 38 36 32 34 37 34 35 34 31 32 36 35 35 34 32 30 31 30 32 32 32 34 34 37 38 38 36 39 45 45 42 44 48 49 49 48 50 48 48 48
15 17 21 18 17 17 16 14 13 12 16 26 27 27 29 28 29 28 22 13 24 24 24 23 23 24 25 25 24 25 25 21 22 28 27 27 26 25 24 24 23 28 28 29 34 33 34 41 33 31 32 33 31 32 38 38 36 33 33 34 33 33 32 34 32 34 33 36 34 34 36 38 39 39 41 41 42 46 46 47 47 47 49 48 48 48
16 15 15 14 18 16 17 14 14 17 18 28 28 27 25 26 29 26 16 14 26 25 24 24 22 22 23 24 25 25 23 23 23 27 27 26 26 28 27 25 25 25 24 25 29 33 33 31 29 34 33 30 33 37 35 36 33 36 36 35 35 35 34 36 38 35 36 36 39 39 38 41 41 42 41 40 44 47 47 49 48 49 48 49 46 45
16 16 15 14 13 15 19 14 15 16 29 30 26 26 24 29 24 16 14 22 25 24 24 24 24 24 25 24 25 24 24 25 25 26 28 26 25 26 27 28 26 24 23 23 24 33 25 23 27 24 28 28 30 31 32 32 35 36 35 36 37 36 37 38 38 38 38 38 37 36 36 37 40 43 44 43 46 48 48 47 48 50 50 49 48 48
20 21 19 17 14 13 16 13 14 18 28 27 25 25 25 24 18 15 21 26 27 22 23 22 23 24 24 24 24 24 25 25 26 25 25 25 25 27 25 25 26 26 25 27 32 30 28 25 29 28 28 28 29 28 30 31 32 31 31 34 35 37 36 35 34 35 36 36 36 37 37 39 41 44 46 46 46 48 48 49 49 48 48 47 46 47
15 17 15 16 18 18 18 16 14 12 27 27 25 22 24 20 22 23 24 23 23 22 22 22 22 22 22 22 23 25 24 23 24 24 25 25 24 25 25 25 27 26 27 29 28 25 26 24 24 24 26 26 27 29 29 32 32 32 34 33 35 36 35 35 36 34 35 35 36 38 39 41 43 44 45 44 44 46 47 46 45 46 48 48 47 47
17 15 14 16 17 14 15 15 16 22 23 26 20 18 24 21 22 23 22 19 21 20 20 20 20 21 22 22 22 23 23 23 23 24 24 24 25 25 25 26 26 25 25 23 22 23 24 24 25 25 25 25 27 28 30 32 31 31 32 34 34 35 36 35 34 34 35 36 38 38 38 38 41 43 45 45 45 44 44 43 44 45 46 45 45 47
14 14 20 15 19 19 17 18 20 22 20 18 21 19 20 21 21 20 21 18 18 17 20 18 19 22 21 20 21 21 21 22 22 22 21 22 23 22 23 21 23 23 22 23 21 24 23 20 23 25 25 26 28 29 29 29 30 30 33 35 36 34 35 36 35 36 37 37 37 38 38 40 40 41 41 41 41 41 41 43 46 44 44 45 46 47
20 19 19 16 14 16 16 18 20 15 15 17 16 18 18 19 17 18 18 17 18 19 19 19 19 19 19 20 20 20 20 20 21 20 19 20 19 19 22 20 18 20 20 21 23 23 23 21 23 23 26 25 26 29 31 32 31 33 34 35 35 34 34 35 36 37 37 37 37 36 33 36 37 37 39 40 40 41 40 41 43 45 45 46 47 46
21 19 17 14 16 14 13 14 14 15 15 17 16 17 17 17 17 18 18 17 18 19 20 20 21 21 21 21 20 19 20 20 20 20 20 19 19 19 18 18 19 21 22 21 22 25 24 23 21 23 27 28 29 29 30 32 33 32 33 34 33 33 33 33 36 37 38 37 36 36 36 36 36 37 39 40 39 41 41 44 47 47 46 46 45 44
15 18 13 14 13 14 14 14 16 18 19 18 16 15 16 17 17 18 18 18 20 20 20 20 20 19 20 19 19 19 19 19 18 19 18 17 17 17 17 18 19 18 19 20 21 23 21 21 21 24 25 27 30 31 32 32 31 31 33 32 33 33 35 37 38 37 37 36 36 36 35 36 34 36 38 38 39 40 45 46 46 45 45 43 44 42
14 18 14 15 14 14 14 14 16 16 16 16 16 16 17 17 19 21 21 20 20 21 22 21 22 22 22 23 26 27 26 26 25 24 23 22 23 24 22 19 20 20 21 19 21 25 24 25 23 25 28 30 31 32 32 32 32 32 34 35 35 37 39 39 37 38 37 37 37 37 37 38 38 38 38 40 42 39 38 43 44 42 39 39 41 42
16 16 17 18 15 14 14 15 16 14 14 14 16 17 18 20 21 21 22 23 25 24 25 26 27 28 28 28 28 27 27 28 28 26 25 26 26 26 26 26 24 23 20 21 24 23 23 26 28 29 29 30 31 32 32 33 33 33 33 34 37 40 39 39 38 38 37 37 37 37 38 39 38 39 40 43 39 37 35 33 34 37 38 37 34 34
16 19 17 15 14 14 14 13 17 18 19 20 20 21 21 21 22 24 25 28 29 28 29 28 28 29 29 29 29 29 30 30 29 29 29 27 28 29 29 28 27 27 28 27 23 23 24 26 29 29 30 30 32 32 32 32 32 39 40 39 38 38 38 37 38 38 38 37 38 40 42 42 42 43 42 39 38 36 34 33 33 33 33 33 33 33